This is the latest recevied weather packets stored in our database for station/object CQ0XVC-11. If no packets are shown the sender has not sent any weather packets the latest 10 day(s).
| Time | Temp. | Humidity | Pressure | Rain* | Wind** | Luminosity | Snow |
|---|---|---|---|---|---|---|---|
| 1777405517 | 16.11° C | 66% | 994.6 hPa | 0 mm | - | - | - |
| 1777405470 | 16.11° C | 66% | 994.6 hPa | 0 mm | - | - | - |
| 1777405168 | 16.11° C | 67% | 994.6 hPa | 0 mm | - | - | - |
| 1777404865 | 16.11° C | 65% | 994.4 hPa | 0 mm | - | - | - |
| 1777404605 | 16.67° C | 66% | 994.2 hPa | 0 mm | - | - | - |
| 1777404564 | 16.67° C | 66% | 994.2 hPa | 0 mm | - | - | - |
| 1777404261 | 16.67° C | 66% | 994.4 hPa | 0 mm | - | - | - |
| 1777403959 | 16.67° C | 64% | 994.3 hPa | 0 mm | - | - | - |
| 1777403656 | 17.22° C | 65% | 994.3 hPa | 0 mm | - | - | - |
| 1777403398 | 17.22° C | 63% | 994 hPa | 0 mm | - | - | - |
| 1777403355 | 17.22° C | 63% | 994 hPa | 0 mm | - | - | - |
| 1777403052 | 17.78° C | 62% | 994.1 hPa | 0 mm | - | - | - |
| 1777402796 | 17.78° C | 61% | 994.2 hPa | 0 mm | - | - | - |
| 1777402751 | 17.78° C | 61% | 994.2 hPa | 0 mm | - | - | - |
| 1777402448 | 18.33° C | 59% | 994.1 hPa | 0 mm | - | - | - |
| 1777402180 | 18.89° C | 57% | 993.9 hPa | 0 mm | - | - | - |
| 1777402146 | 18.89° C | 57% | 993.9 hPa | 0 mm | - | - | - |
| 1777401843 | 19.44° C | 56% | 993.8 hPa | 0 mm | - | - | - |
| 1777401587 | 20° C | 55% | 993.9 hPa | 0 mm | - | - | - |
| 1777401542 | 20° C | 55% | 993.9 hPa | 0 mm | - | - | - |
| 1777401239 | 20.56° C | 53% | 993.6 hPa | 0 mm | - | - | - |
| 1777400937 | 21.11° C | 51% | 993.5 hPa | 0 mm | - | - | - |
| 1777400669 | 21.67° C | 48% | 993.4 hPa | 0 mm | - | - | - |
| 1777400635 | 21.67° C | 48% | 993.4 hPa | 0 mm | - | - | - |
| 1777400333 | 21.67° C | 43% | 993.4 hPa | 0 mm | - | - | - |
* Rain since midnight (hover to see other rain measurements)
** Current wind speed in m/s (hover to see current wind gust speed)